Погода в Обуховичах

Украина / Киевская область     50°59′08″N   29°46′17″E
темп.,
°C
ветер,
м/с
пор.,
м/с
влажн.,
%
обл.,
%
осадки,
мм/ч
давл.,
гПа
погр.,
м
17 апреля, сб
сб1700:00+6з2497100 1.2 1014141
03:00+6зюз1299100 3.3 101491
06:00+5вюв4694100 1.9 1015363
09:00+6в3586100 2.1 1017511
12:00+7вюв4479100 0.1 1017757
15:00+7юв2382100 0.3 1018564
18:00+7ююз1182100 0.1 1019190
21:00+5зюз339123 0.2 101855
18 апреля, вс
вс1800:00+4зюз349389 0.0 101860
03:00+3зюз389334 0.0 1017146
06:00+3зюз5119596 0.0 1016245
09:00+6зюз61290100 1.3 1015493
12:00+7з61092100 3.3 1014836
15:00+6сз6892100 3.3 1016584
18:00+5ссз4792100 0.0 1016752
21:00+5ссз5992100 0.1 1017420
19 апреля, пн
пн1900:00+5с389458 0.0 1017302
03:00+6с4895100 0.0 1016436
06:00+5с379570 0.0 1017339
09:00+6ссв578996 0.0 1017511
12:00+8св4575100 0.0 1016775
15:00+8ссв4676100 0.1 1016711
18:00+8ссв3480100 0.1 1015744
21:00+6с359272 0.1 1014160
20 апреля, вт
вт2000:00+5всв1194100 0.0 101316
03:00+5в239313 0.1 101153
06:00+5ссв3592100 0.1 1010134
09:00+7ссв4791100 0.3 1008306
12:00+11св787285 0.1 10061061
15:00+9с71077100 0.3 10041096
18:00+8ссз71278100 0.0 10021288
21:00+6ссз81490100 0.1 1002851
21 апреля, ср
ср2100:00+6сз9148299 0.0 1003998
03:00+6зсз81380100 0.0 10041138
06:00+6з71380100 0.1 1006873
09:00+7з61174100 0.1 1008960
12:00+10з71057100 0.1 10101777
15:00+11з685394 0.3 10121833
18:00+11з57586 0.3 10131583
21:00+7юз34765 0.3 101654